Location: Lecco
(45.8566°N, 9.3977°E)
Time: 13:12:05
(UTC+02:00)

Explorer 11/Cluster Stage 4 - Pass Details

Date: 18 August 2020
Orbit: 467 x 1258 km, 28.8° (Epoch: 24 September)

Event Time Altitude Azimuth Distance (km) Brightness Sun altitude
Rises 01:06:48 0° 251° (WSW) 4,100 10.1 -31.0°
Enters shadow 01:06:48 - 251° (WSW) 4,098 10.1 -31.0°
Reaches altitude 10° 01:11:22 10° 229° (SW) 3,205 - -31.0°
Maximum altitude 01:15:06 14° 201° (SSW) 2,935 - -31.1°
Drops below altitude 10° 01:18:52 10° 173° (S) 3,215 - -31.1°
Sets 01:23:29 0° 151° (SSE) 4,121 - -31.1°
